Location: Brede
(50.9167°N, 0.6000°E)
Time: 16:41:55
(UTC+00:00)

CZ-2D R/B - Pass Details

Date: 08 August 2020
Orbit: 792 x 845 km, 98.7° (Epoch: 23 September)

Event Time Altitude Azimuth Distance (km) Brightness Sun altitude
Rises 00:07:36 0° 28° (NNE) 3,412 6.4 -23.0°
Reaches altitude 10° 00:11:03 10° 50° (NE) 2,475 5.2 -23.0°
Maximum altitude 00:14:14 16° 86° (E) 2,101 4.3 -23.0°
Enters shadow 00:16:29 13° 113° (ESE) 2,288 4.3 -23.0°
